DELTA 1 DEB, 42642

Orbit data source: Space-Track

DELTA 1 DEB, 42642 is space debris in SSO originally from a launch on Thu, 12 Jun 1975 UTC launched from the Air Force Western Test Range (AFWTR). Debris objects in space refer to the collection of defunct objects orbiting the Earth. Examples of debris include non-operational satellites, rocket bodies, and fragments generated from explosions, collisions, or faulty payload assembly.

Loading next visibility...
DELTA 1 DEB details
Identifier
42642, 1975-052MB
Orbit
SSO
Last TLE update1 week ago
Origin
Flag of USGSFC (US)
ManufacturerUnknown
MissionSpacecraft
Bus & MotorUnknown
MassUnknown
Launch date (UTC)
1975-06-12 (50 years ago)
Launch vehicleUnknown
Launch site
Air Force Western Test Range (AFWTR)
Object type
Payload
Rocket body
Debris
Shape & HBRUnknown
Radar Cross SectionSmall (<0.1 m²)

Expand to show TLE details & history

TLE from 1 week ago
0 DELTA 1 DEB
1 42642U 75052MB  24353.54795046  .00000175  00000-0  45054-3 0  9998
2 42642  99.8732 101.7178 0075976 235.5850 123.8075 13.31293981538456
Epoch: 2024-12-18T13:09Z
Definitive object data (Epoch: 2024-12-18T13:09:02.919Z)
Latitude0.00001°
Longitude176.81504°
Altitude1,176.733 km
Speed7.25 km/s
True Right ascension06h 46m 52s
True Declination0° 00' 00"
Sunlit
Object was in full shadow at TLE epoch
Visualization TLE readout
Latitude-60.59766°
Longitude-157.37562°
Altitude1,156.901 km
Speed7.278 km/s
Apparent Right ascension07h 25m 37s
Apparent Declination-51° 48' 03"
Sunlit
Object is in daylight
Visualization observer readout
Local Sidereal Time18:37:05
Azimuth211.174° SW
Elevation-75.46°
Doppler factor1
Orbital elements
Apogee altitude1,196.335 km
Perigee altitude1,082.108 km
Semi-major axis7,517.359 km
Eccentricity0.0075976
Inclination99.8732°
RAAN101.7178°
Arg. of periapsis235.585°
True anomaly124.52709°
Mean anomaly123.8075°
Eccentric anomaly124.16767°
Mean motion3.33001 °/min
BSTAR0.00045054
Orbital period108.11 mins
Loading maneuver chart data...
Loading historical data...
Loading historical data...
Loading historical data...
Loading historical data...
Loading historical data...
Loading historical data...
Loading historical data...

DELTA 1 DEB Visibility forecast

Observer location: undefined°, undefined

Span
Click to sort rows by Start time (UTC) header in descending order
Start Az.
Max El. time (UTC)
Max El. Az.
Max El.
End time (UTC)
End Az.
12 mins2024-12-26 20:09:27.606Z19.449° NNE2024-12-26 20:15:27.606Z86.653° E43.661°2024-12-26 20:21:27.606Z187.553° SSW
7 mins2024-12-26 21:58:27.606Z334.556° NNW2024-12-26 22:01:27.606Z302.955° NW19.803°2024-12-26 22:05:27.606Z262.463° W
12 mins2024-12-27 06:30:27.606Z130.841° SE2024-12-27 06:35:27.606Z74.515° E34.934°2024-12-27 06:42:27.606Z357.597° N
11 mins2024-12-27 08:17:27.606Z206.443° SW2024-12-27 08:22:27.606Z263.888° W29.862°2024-12-27 08:28:27.606Z325.612° NNW
|